GFSGBSN_500_rhum_045.txt.gz
RH
57 53 54 54 56 57 56 58 66 73 66 63 70 64 54 50 46 49 47 46 40 34 35 40 50 52 58 54 44 36 27 24 13 15 18 27 20 30 50 30 72 99 70 91 80 76 94
71 64 61 55 52 56 62 60 58 62 69 80 75 76 76 77 69 65 64 62 59 51 47 51 57 54 59 54 49 38 28 25 13 16 18 22 32 25 46 48 77 76 97 74 97 98 100
70 76 74 72 66 56 60 71 73 64 67 61 89 84 81 84 88 90 88 86 72 60 69 61 63 60 60 56 56 41 30 24 13 16 18 22 32 36 35 58 69 63 83 68 84 92 98
57 58 60 59 62 64 55 62 70 78 78 61 71 79 89 87 82 91 89 87 88 86 72 64 66 60 61 62 71 44 30 25 15 17 19 26 29 44 44 53 66 51 77 90 99 91 99
42 44 45 46 52 56 59 56 54 59 76 80 70 72 73 72 82 88 89 84 88 95 93 74 72 65 66 73 79 46 31 27 16 16 20 26 36 36 44 58 67 40 65 76 90 76 96
32 36 34 33 36 42 47 55 57 58 65 70 70 68 69 70 72 78 83 84 83 84 96 91 90 69 69 77 74 46 32 29 17 16 21 25 40 35 40 50 61 57 52 65 94 87 94
12 12 14 16 16 16 25 37 47 58 56 58 64 64 61 68 71 74 80 87 77 77 88 99 93 82 76 83 68 45 35 30 20 16 19 22 37 39 42 53 56 60 70 70 86 91 99
9 10 11 12 12 12 10 14 27 36 52 61 71 72 66 66 63 83 75 77 81 77 74 92 99 91 81 82 63 44 37 30 22 15 15 20 38 43 30 45 56 62 53 76 70 63 71
4 4 4 5 7 8 9 9 9 18 32 46 55 74 75 80 74 82 95 77 86 82 67 93 82 93 85 92 58 45 35 31 22 17 16 19 38 47 42 50 55 62 45 91 88 62 45
2 2 2 3 3 4 5 7 8 9 14 30 50 57 73 74 83 94 89 91 86 83 72 84 85 94 87 80 60 50 38 32 22 19 16 19 48 44 40 61 48 52 56 72 77 98 99
2 2 2 2 2 2 3 4 6 8 10 18 32 58 63 70 78 91 87 89 84 81 72 78 77 85 94 71 60 50 36 30 24 18 13 18 40 50 41 60 51 45 50 55 68 91 74
15 14 14 9 7 5 4 3 3 6 7 11 23 40 61 59 99 98 92 90 78 78 61 80 77 79 99 72 61 54 38 32 26 18 12 18 27 54 39 42 51 53 51 54 61 66 61
42 42 41 27 20 24 13 5 3 2 6 7 14 29 40 64 87 85 96 96 85 57 62 72 95 83 93 79 66 58 41 31 27 18 14 20 25 52 44 37 41 41 51 53 57 52 52
44 42 65 74 49 30 26 16 3 3 3 5 9 17 30 45 72 85 91 91 64 47 53 78 96 96 80 70 64 55 40 30 28 19 12 13 21 39 42 41 44 44 44 52 51 51 56
52 56 55 49 84 73 53 32 15 5 6 6 6 12 22 33 57 73 94 68 46 54 56 78 94 96 94 66 60 50 38 32 29 19 14 14 24 36 55 61 56 56 60 62 64 71 69
63 64 61 73 76 83 83 66 32 14 6 6 6 7 13 24 39 34 75 52 52 60 72 81 87 95 97 78 54 46 39 36 32 23 15 16 28 34 49 74 78 76 81 81 80 71 69
64 47 45 68 60 75 73 96 62 27 19 7 6 7 10 16 29 20 51 32 48 53 79 85 89 96 80 71 62 53 47 41 36 26 17 16 27 45 46 84 98 98 89 92 87 70 58
49 43 40 39 52 68 72 62 100 52 25 20 5 7 7 10 19 42 36 34 49 59 76 80 85 96 96 89 55 51 48 45 40 30 18 20 26 32 50 84 100 100 91 81 81 71 63
56 74 59 48 99 82 79 69 73 97 28 28 7 5 8 9 12 27 25 34 46 60 67 63 83 96 97 98 76 55 53 48 41 31 19 19 19 27 39 58 78 95 89 85 75 71 59
71 74 93 74 46 100 83 63 55 100 52 27 23 6 7 12 10 20 28 27 38 58 70 56 74 97 98 97 92 66 56 51 42 31 22 19 19 23 29 39 67 80 90 95 80 60 46
100 100 100 100 64 50 100 84 81 100 87 44 31 13 5 8 10 16 20 25 39 56 74 56 55 94 97 96 98 91 84 70 43 35 27 27 20 22 23 40 48 63 80 72 61 56 54
100 100 88 100 73 68 100 100 100 100 100 57 30 20 5 6 9 13 19 13 25 48 76 75 67 100 62 68 89 96 99 88 50 35 36 49 27 22 21 30 46 44 44 56 50 42 41
100 97 98 100 74 82 100 100 100 100 100 52 28 24 10 5 8 10 17 16 19 41 64 86 97 94 56 59 83 97 99 97 67 46 39 36 27 21 20 28 46 31 35 37 31 22 21
84 92 91 100 89 71 100 100 100 100 92 56 30 30 13 4 6 10 15 21 23 35 38 73 93 81 23 18 76 99 97 94 69 74 58 38 27 20 31 34 35 37 56 36 18 12 12
100 100 100 100 98 85 100 100 100 100 100 57 44 38 16 5 5 8 13 18 24 31 23 33 79 93 44 29 88 89 100 85 72 68 86 70 38 28 40 45 21 25 29 23 14 13 15
90 95 100 99 68 100 100 100 100 100 100 59 65 60 21 10 4 6 11 16 20 24 25 19 25 99 94 67 47 93 95 97 85 81 90 82 64 67 48 58 34 18 24 14 17 12 13
100 100 95 72 100 100 100 100 100 100 100 97 94 56 29 7 4 5 9 14 16 18 19 17 12 92 96 87 80 62 100 99 77 70 84 81 77 62 40 24 21 22 17 17 23 11 9
100 86 83 91 100 100 100 100 100 100 100 100 86 51 25 8 4 4 6 11 15 16 14 13 8 42 93 81 81 81 69 89 100 79 75 94 91 71 61 39 16 32 23 28 22 8 9
90 100 100 100 96 100 100 100 100 100 100 99 82 46 26 14 49 5 5 8 12 14 13 11 9 10 52 92 74 70 75 77 96 99 74 80 92 91 65 56 38 40 40 50 18 9 9

GFSGBSN_500_rhum_048.txt.gz
RH
70 67 64 64 64 64 65 64 59 54 57 67 76 80 65 59 52 48 47 45 43 50 51 48 53 48 51 53 55 56 52 51 42 27 14 14 15 20 29 34 19 32 56 83 100 84 68
80 80 61 65 65 61 65 67 66 64 58 56 63 76 80 78 70 60 59 68 61 60 71 67 65 60 63 61 58 57 54 58 46 27 14 15 19 23 35 41 28 49 47 64 92 96 97
86 79 75 67 63 64 62 64 61 62 62 61 60 64 80 79 77 75 66 76 75 79 90 90 82 71 68 69 63 60 56 71 48 28 15 16 20 26 38 46 41 48 80 59 81 93 92
94 94 83 79 72 66 64 66 62 62 60 56 58 56 61 68 78 75 68 79 73 75 86 84 93 94 78 74 68 64 64 79 50 30 17 15 19 28 31 43 48 31 76 100 81 74 74
57 55 56 74 70 54 61 58 56 56 55 55 52 53 53 57 62 70 70 68 68 67 83 78 88 94 85 74 75 69 66 84 50 31 19 15 18 27 26 35 50 45 100 84 99 94 92
19 20 21 24 33 57 52 41 42 48 52 56 53 54 55 57 64 60 64 66 63 60 70 81 85 88 86 80 82 74 70 78 50 33 21 15 17 27 26 34 60 96 47 86 98 94 98
11 11 13 14 15 16 15 20 26 28 28 39 52 56 54 53 49 63 68 58 59 57 60 73 74 83 84 84 87 81 74 82 50 34 22 15 15 31 30 36 40 49 32 100 84 91 98
6 6 6 6 7 10 11 12 14 13 12 16 23 36 53 60 56 52 60 56 57 58 55 62 76 81 80 76 94 86 76 80 50 35 23 15 16 29 34 35 38 51 60 98 55 62 90
4 4 4 4 4 4 4 4 5 9 10 10 10 21 32 38 52 63 60 61 70 60 48 66 66 74 79 76 96 86 76 79 48 34 25 14 13 26 37 42 50 56 89 94 88 39 47
2 2 2 2 3 3 2 2 3 3 4 6 9 10 13 28 33 51 67 64 77 70 58 51 59 55 75 76 90 81 88 79 48 34 27 15 14 22 35 51 50 51 60 64 88 88 100
2 2 2 2 2 2 2 2 2 2 2 2 5 8 10 12 24 42 57 74 80 76 61 47 51 57 70 73 85 88 91 65 51 35 27 21 12 20 38 50 42 35 41 49 56 80 87
4 4 4 4 4 4 4 4 3 3 3 2 2 4 7 9 13 30 49 75 84 83 58 52 53 56 66 73 75 95 73 60 50 34 27 17 13 18 33 39 47 47 50 49 54 65 63
25 27 28 28 29 30 30 23 17 11 9 4 3 3 4 7 12 22 37 74 81 60 40 49 55 63 66 79 82 92 84 60 49 36 28 18 14 19 30 37 42 44 45 88 86 61 69
50 49 48 53 55 51 52 50 50 36 19 11 4 4 5 6 10 16 27 66 56 26 51 54 53 58 67 78 85 92 86 65 54 36 29 21 15 16 25 41 48 37 44 96 100 83 100
43 41 36 36 39 40 41 42 40 62 46 23 10 4 7 7 9 14 27 42 17 24 44 54 66 64 64 72 88 87 83 68 50 35 29 21 15 17 22 34 51 50 41 61 77 63 64
55 45 43 46 50 53 50 47 44 44 78 48 22 12 5 8 9 13 30 16 15 22 40 63 66 67 69 85 90 92 79 65 47 33 29 22 19 19 22 34 43 58 54 62 73 83 78
48 51 54 32 26 60 69 66 62 54 67 96 51 22 7 8 10 14 25 7 11 21 44 65 67 66 69 86 100 98 71 53 43 37 28 23 19 26 25 28 35 43 61 72 82 70 89
49 66 63 65 55 46 81 72 75 81 77 99 97 42 19 7 11 12 14 10 17 26 36 64 69 74 86 100 99 100 94 56 46 40 34 26 20 20 30 34 37 52 79 87 91 87 66
57 80 95 100 99 79 69 61 69 57 85 78 93 70 37 18 6 10 10 16 18 23 41 67 76 83 93 94 100 100 98 66 60 47 38 30 25 22 27 31 34 36 57 80 89 87 62
79 70 54 53 67 96 96 76 56 71 100 96 86 100 61 42 8 7 8 15 22 21 40 58 74 87 99 99 100 96 94 77 73 49 42 34 31 27 22 30 46 44 58 89 100 91 76
59 55 52 76 74 69 70 71 52 46 100 100 90 99 62 23 15 5 7 10 20 26 33 50 65 78 92 89 99 100 98 91 78 62 45 32 29 25 23 32 36 31 49 76 88 70 57
51 39 69 95 100 100 92 100 75 46 98 100 100 81 68 29 28 9 6 8 14 28 37 43 59 68 68 81 100 98 100 99 96 88 49 33 32 27 23 23 26 28 31 38 47 52 59
42 65 92 100 100 100 100 93 77 53 98 100 100 88 74 37 27 17 6 7 11 20 34 44 60 66 63 63 100 95 98 98 96 86 52 38 37 32 23 22 30 12 16 31 34 40 38
82 91 100 100 100 100 100 100 99 64 100 98 96 81 74 60 39 16 6 6 8 13 26 38 51 87 98 24 96 98 100 100 99 99 78 48 41 37 33 28 22 15 18 41 40 36 35
96 85 74 86 100 100 100 100 95 81 100 94 98 89 87 75 32 24 8 5 7 9 12 23 41 50 100 47 94 92 99 100 100 96 87 53 54 50 44 22 22 11 18 51 56 22 24
94 100 100 100 100 100 100 99 80 100 100 92 100 100 100 80 37 37 15 5 6 8 10 17 20 37 99 96 99 76 95 100 98 100 94 85 76 68 56 35 18 14 26 34 43 15 44
69 96 90 100 100 100 95 84 98 100 100 81 100 100 100 70 52 37 21 5 6 8 13 14 18 24 88 99 77 43 72 85 99 87 88 91 100 79 72 56 34 24 31 65 38 20 21
84 78 87 99 88 83 83 95 100 100 92 97 100 100 100 65 41 35 51 9 6 18 45 12 13 17 86 95 84 39 44 82 94 100 83 80 92 86 99 80 44 42 45 28 33 25 23
90 82 88 89 93 89 98 100 89 100 98 100 100 97 66 51 40 32 42 46 22 19 45 11 17 18 72 81 95 75 55 56 84 95 100 98 95 89 63 60 74 72 57 38 37 40 36

GFSGBSN_500_rhum_051.txt.gz
RH
90 85 76 77 75 68 68 68 66 71 68 65 62 64 64 64 77 72 62 57 51 47 43 40 41 52 53 57 59 62 63 60 58 60 46 24 13 13 22 26 29 24 25 60 51 53 55
92 93 92 81 82 80 67 66 69 71 72 70 68 64 63 60 60 67 72 80 69 64 63 60 57 74 69 76 69 67 69 66 61 68 49 26 14 13 25 22 32 76 13 29 64 65 56
95 96 95 95 85 90 82 78 71 69 66 70 65 60 58 61 60 58 63 69 82 83 74 69 69 82 80 88 74 71 73 70 64 76 51 28 14 13 23 22 30 24 19 93 48 74 79
98 96 95 97 96 96 90 82 81 76 70 69 64 66 65 63 56 61 62 62 58 66 75 75 62 73 80 81 92 87 74 76 65 77 56 31 16 13 21 21 31 34 69 100 97 86 80
98 95 96 94 87 90 93 96 88 78 75 71 66 60 65 59 60 59 62 64 61 61 60 60 52 46 80 86 89 96 89 80 69 74 58 35 17 13 19 21 64 81 92 97 82 87 59
39 59 53 62 59 52 51 52 53 59 91 64 52 58 56 59 61 62 66 61 64 69 66 61 51 41 64 80 87 89 94 90 78 76 65 36 18 13 15 31 91 93 95 88 83 90 62
11 11 12 16 18 18 17 16 18 21 27 35 85 42 38 45 55 60 67 64 64 60 68 66 55 48 48 67 85 82 87 99 84 78 66 37 21 15 92 92 26 50 99 87 89 100 72
4 5 5 5 6 7 8 8 9 11 13 13 13 20 32 27 32 42 54 62 61 64 62 67 57 56 46 54 77 72 78 89 88 80 71 38 21 15 20 29 40 38 100 97 87 82 43
4 4 4 3 3 3 4 4 5 5 6 7 9 10 11 11 13 18 30 42 54 64 48 66 66 54 48 49 72 76 71 97 90 84 69 35 28 13 22 31 43 49 98 96 94 90 44
3 3 3 3 2 2 2 2 2 3 3 3 4 4 5 8 9 11 14 21 35 45 52 43 65 46 51 54 43 70 67 91 89 81 66 36 26 15 23 33 38 91 65 81 96 100 99
2 2 2 2 2 2 2 2 2 2 2 2 2 2 3 3 4 7 9 13 24 33 49 45 41 47 56 47 54 70 87 91 86 90 74 42 30 17 18 32 37 70 70 40 81 100 100
2 2 2 2 2 2 2 2 2 2 2 2 2 2 2 2 2 3 5 10 14 31 25 32 31 46 49 51 47 67 73 79 91 96 64 42 28 15 16 24 35 47 49 44 50 100 99
4 6 9 11 12 13 15 13 10 11 10 7 5 3 2 2 2 3 3 7 13 12 18 23 27 39 53 51 43 58 74 70 74 83 57 43 29 16 13 22 32 35 52 84 100 100 68
29 31 32 35 40 42 41 41 38 35 34 27 28 13 6 3 3 3 5 8 10 4 9 14 23 30 42 54 46 56 76 74 94 92 55 39 36 20 16 17 42 37 57 90 82 92 97
50 50 49 47 42 41 39 36 38 50 54 53 53 42 18 8 6 5 8 19 3 3 8 15 26 30 39 56 63 70 74 81 94 95 67 47 34 27 16 16 32 83 48 92 99 90 52
49 41 36 35 33 40 41 42 41 36 39 44 46 44 48 35 22 12 9 12 2 3 9 10 27 40 63 61 66 68 80 85 99 97 62 44 40 40 18 16 18 42 72 69 58 81 76
48 47 44 41 37 36 41 49 47 40 37 45 40 36 38 62 41 25 8 6 3 6 11 16 27 58 69 87 74 80 89 99 100 98 78 44 37 54 22 16 17 24 36 71 100 91 96
48 42 36 42 44 48 40 43 51 63 44 41 51 39 37 70 79 41 20 4 4 7 14 19 31 44 72 80 83 92 100 99 97 97 94 78 36 80 28 24 30 98 44 72 100 98 96
61 57 62 68 62 54 46 40 43 67 66 68 54 56 54 78 85 53 22 13 4 8 23 25 28 46 95 99 82 84 98 100 96 96 87 60 43 35 93 56 21 42 77 100 100 100 98
73 68 63 62 58 49 41 58 83 100 90 100 100 94 91 80 53 88 41 14 6 6 10 30 47 100 100 78 87 98 100 99 96 81 90 77 47 36 28 52 70 27 42 94 98 95 68
76 69 55 46 39 46 72 88 93 100 100 100 100 91 84 71 51 28 48 23 11 6 8 16 53 98 99 91 73 100 100 97 98 92 83 75 50 40 36 71 100 98 94 96 100 100 98
69 55 31 34 37 60 66 66 60 100 100 100 100 99 77 72 53 80 69 48 19 7 7 9 30 60 100 100 100 100 100 100 100 99 97 98 77 39 37 37 95 85 97 97 98 100 100
64 27 44 65 66 66 72 45 48 90 100 100 100 100 98 100 58 71 66 48 24 8 7 8 12 66 100 100 100 92 99 100 97 96 99 99 63 48 39 45 48 52 13 74 59 78 50
54 78 80 84 86 92 86 59 46 74 90 90 100 98 98 96 98 61 47 65 36 19 6 8 16 16 68 95 98 99 96 96 97 100 98 90 85 78 63 40 32 25 20 22 20 17 30
68 50 38 41 60 72 65 65 100 99 100 92 85 100 100 99 99 70 94 91 73 42 8 81 75 12 20 62 83 100 100 99 96 100 98 99 97 85 54 40 43 31 22 19 19 20 34
46 61 77 90 96 86 100 100 100 100 91 79 81 100 100 99 99 93 100 100 75 42 24 100 100 96 20 32 80 75 86 91 100 97 100 98 92 88 80 53 38 35 22 26 27 19 46
62 65 71 87 80 96 100 100 100 100 100 99 73 94 100 98 100 100 100 100 66 47 54 57 99 68 14 25 91 65 49 66 97 98 100 100 95 90 95 64 43 40 29 30 24 22 99
75 95 97 84 80 100 100 100 100 100 100 89 69 100 100 100 100 100 100 100 61 44 52 88 45 96 61 31 67 94 69 58 96 100 99 100 96 89 90 81 61 56 41 33 44 38 60
68 72 93 97 75 98 100 100 100 96 100 83 99 100 100 100 100 100 100 100 60 49 42 65 36 50 31 63 69 79 100 71 86 99 100 94 100 99 95 85 89 94 88 84 92 62 32

GFSGBSN_500_rhum_054.txt.gz
RH
97 96 93 94 96 96 93 82 75 76 74 69 70 71 71 67 67 64 63 74 74 70 59 51 47 45 43 44 53 63 59 64 67 66 64 69 41 22 12 21 48 57 22 61 60 37 43
97 97 96 97 96 94 97 96 88 78 73 69 68 64 71 72 68 65 60 61 62 65 76 72 60 58 58 56 60 77 80 73 68 70 64 73 44 21 10 14 13 42 51 10 31 44 54
96 96 97 97 96 96 96 96 98 98 86 73 71 69 67 68 69 67 59 59 56 62 64 60 66 63 55 77 62 70 78 94 94 75 69 74 50 23 14 13 11 14 8 11 93 65 62
95 97 98 97 96 96 97 96 96 97 94 90 84 82 74 67 68 68 66 63 60 61 64 64 57 48 41 64 61 69 71 94 91 81 70 71 60 25 13 12 12 12 8 40 66 88 98
96 96 97 97 96 96 96 96 96 96 97 96 86 85 85 79 76 73 70 72 65 65 67 63 67 49 49 45 54 57 70 92 92 87 79 73 72 29 14 11 22 44 55 93 81 84 83
82 81 59 63 68 90 96 95 96 93 92 96 96 96 87 76 71 68 69 74 70 68 64 66 68 58 57 54 49 59 56 89 85 96 91 78 71 34 14 21 30 100 99 97 80 89 84
23 10 36 42 10 15 14 33 54 42 56 45 71 72 88 90 93 52 46 52 61 64 63 68 57 66 56 56 48 53 54 66 76 85 98 81 71 36 15 43 72 50 78 82 99 85 79
4 5 5 5 5 5 6 6 8 10 14 15 14 18 15 20 39 70 84 37 35 47 53 65 62 58 65 60 56 58 58 53 78 85 90 82 74 43 16 25 24 33 21 55 100 100 63
3 4 4 4 4 4 4 4 4 5 6 6 6 6 8 10 11 10 18 64 72 35 43 50 59 54 73 52 61 54 60 58 70 88 84 92 75 46 20 10 22 23 22 68 92 97 76
3 3 3 3 2 2 2 2 3 3 4 4 4 4 4 5 5 7 8 9 12 46 53 31 41 43 56 52 45 64 54 60 56 80 88 93 66 50 22 10 19 26 54 66 74 64 73
3 3 3 3 3 2 2 2 2 2 2 2 2 2 3 3 3 3 4 4 6 9 13 22 28 28 47 48 55 61 64 66 58 81 97 77 84 40 26 12 18 34 41 59 27 77 69
3 3 2 2 2 2 2 2 2 2 2 2 2 2 2 2 2 2 2 2 3 5 7 11 17 22 30 41 48 62 62 55 62 87 95 89 88 51 28 14 13 34 35 45 41 50 66
2 2 2 2 2 2 2 2 2 2 2 2 2 2 2 2 2 2 2 2 12 3 6 7 9 13 21 28 39 55 55 53 47 60 70 76 94 56 33 16 12 26 32 36 45 40 49
2 2 2 3 4 6 6 7 7 9 10 14 12 7 4 3 4 3 2 3 7 3 3 6 7 7 10 21 28 45 53 46 44 77 100 87 97 70 34 20 14 24 32 31 56 97 86
3 6 13 23 31 41 48 45 46 43 42 42 47 31 27 21 20 18 10 5 2 1 2 5 6 5 5 9 21 35 48 48 57 82 87 90 92 68 52 27 17 42 24 39 90 78 94
19 41 62 71 72 71 70 68 64 62 56 55 49 52 47 50 48 33 29 12 2 2 3 16 18 14 13 7 16 31 40 47 59 82 99 91 96 90 92 60 20 17 64 67 58 71 82
74 85 80 76 69 74 82 79 72 65 68 72 58 42 37 53 77 72 37 15 5 2 2 17 12 10 36 94 23 42 44 58 66 90 95 93 98 98 98 82 29 20 24 58 69 64 54
96 88 79 72 66 59 56 56 63 69 71 74 56 40 43 52 50 46 37 26 26 11 4 17 39 27 48 80 100 84 69 58 86 100 85 86 97 87 98 92 45 24 23 30 46 65 57
98 84 69 60 51 50 53 57 48 59 62 76 61 52 60 68 58 31 23 24 32 20 13 6 31 17 22 96 100 98 92 89 92 99 90 91 93 99 92 99 54 26 32 58 46 71 85
80 64 52 50 50 54 55 49 57 63 74 81 91 80 60 58 49 39 31 19 18 27 26 13 7 15 55 48 94 90 100 100 95 96 100 100 96 83 82 92 92 54 75 81 87 96 59
84 78 71 62 56 52 54 52 56 72 89 88 100 90 57 51 42 29 30 25 24 22 31 24 9 7 18 81 87 83 80 100 92 90 98 97 80 100 94 90 99 82 68 76 95 97 63
80 75 69 65 60 60 61 64 67 73 67 100 100 99 70 69 60 65 70 48 40 25 37 30 14 6 8 51 100 100 98 99 100 95 93 97 89 100 90 72 58 98 100 72 61 77 83
76 66 64 54 44 47 66 88 81 66 68 85 100 98 100 83 86 87 62 40 38 45 41 59 33 9 19 11 84 99 100 99 84 100 90 97 97 93 82 76 60 58 83 98 100 100 97
75 80 78 69 65 61 50 48 62 45 31 69 100 100 100 100 97 90 81 66 48 64 59 78 65 14 7 14 91 99 100 96 94 93 99 95 88 83 93 78 78 61 66 60 84 71 86
53 50 41 35 49 70 86 85 76 58 57 71 84 100 100 100 96 90 100 100 88 68 82 100 92 36 11 97 75 93 100 100 100 98 86 100 92 100 90 95 84 68 62 63 54 32 40
60 74 77 71 60 58 74 99 100 77 69 60 56 54 100 100 99 83 100 100 88 72 75 80 90 82 100 94 77 28 97 100 100 100 98 100 100 98 97 96 71 61 68 67 58 33 44
50 61 53 45 49 54 64 62 90 99 92 95 62 66 88 97 88 99 100 100 98 98 80 91 93 87 97 85 72 44 98 96 99 98 100 99 100 94 93 94 75 78 94 68 59 36 55
62 59 63 64 67 75 91 93 76 88 100 96 74 93 95 99 100 98 96 94 96 100 90 89 100 95 79 52 30 32 41 61 87 99 97 100 100 100 99 84 82 94 94 88 67 52 95
59 80 81 75 100 91 98 96 84 96 84 100 100 100 100 100 100 87 96 98 100 100 99 100 92 77 39 100 91 56 29 33 33 84 100 100 96 100 100 80 82 95 95 95 96 96 100

GFSGBSN_500_rhum_060.txt.gz
RH
68 67 71 72 77 84 80 83 96 97 90 98 91 75 82 88 84 74 85 81 74 66 61 52 50 48 60 55 65 41 46 47 50 74 78 74 63 60 66 50 21 10 7 5 6 9 20
77 84 88 89 97 93 93 95 94 98 96 92 96 98 96 95 96 91 80 82 75 70 63 56 50 47 45 50 71 61 60 57 58 78 76 78 68 51 62 55 25 9 7 5 7 11 25
81 91 93 95 98 96 97 97 97 98 98 98 92 89 94 97 95 96 94 79 70 72 64 56 50 47 42 73 62 49 64 61 62 75 79 75 63 50 54 61 28 10 8 6 7 26 61
93 88 96 99 98 97 97 96 97 96 98 94 98 90 79 97 96 97 96 94 76 63 66 54 53 42 43 58 51 45 62 69 60 73 75 79 65 63 62 65 30 12 13 15 40 64 56
90 87 92 94 96 97 97 97 96 96 97 96 95 99 95 89 97 97 96 97 89 70 64 58 53 50 47 51 60 43 36 70 62 60 78 73 72 67 64 65 33 15 12 24 44 86 50
58 62 34 47 89 97 96 99 97 96 98 98 94 95 98 98 96 97 97 96 89 81 66 58 51 53 55 50 51 62 47 52 63 53 56 66 68 64 76 68 39 20 14 16 22 35 82
10 18 60 82 55 48 62 54 76 76 89 88 92 83 64 77 96 96 96 98 94 85 63 63 54 53 59 54 49 60 53 48 54 54 48 68 50 75 88 56 55 25 14 12 7 69 83
6 6 6 6 11 68 21 52 22 16 26 50 20 56 85 60 34 85 88 97 84 65 80 74 65 57 65 58 45 56 59 56 50 63 67 58 48 92 83 56 67 38 17 12 11 88 95
8 7 6 6 6 6 30 31 10 38 8 4 3 7 68 54 22 16 22 29 78 72 67 87 79 66 63 52 48 58 55 66 57 59 63 60 72 85 71 68 64 46 15 10 9 24 61
10 9 8 7 6 6 5 4 4 3 6 10 19 4 3 50 53 5 4 8 12 35 54 52 64 57 63 57 37 53 56 62 59 53 70 60 82 70 72 76 70 62 18 13 12 14 32
12 10 9 8 7 6 5 5 4 4 3 3 3 3 3 3 3 3 7 4 4 4 21 24 30 34 30 35 44 50 50 62 62 75 71 57 84 80 80 90 83 63 22 16 19 16 12
10 10 10 9 7 7 6 5 4 4 4 3 3 3 3 3 3 4 3 2 3 3 14 11 16 18 15 14 16 24 52 50 61 68 64 63 78 74 68 96 86 65 22 15 20 16 12
6 6 6 6 6 6 5 5 4 4 4 3 3 2 2 2 2 2 2 2 3 4 6 7 8 8 9 9 9 13 23 42 49 50 54 63 59 68 71 70 79 66 30 19 21 19 16
3 3 4 4 4 4 5 4 4 3 3 2 2 2 2 2 2 2 2 2 2 4 3 3 3 4 4 6 7 8 9 15 24 41 53 54 60 64 63 63 84 80 54 26 16 14 26
3 3 3 3 3 3 3 3 3 2 2 2 2 2 2 3 2 2 2 2 3 2 2 2 2 2 3 7 5 6 7 8 10 23 36 51 44 72 76 95 100 96 83 46 27 18 16
5 5 5 4 4 3 3 2 2 2 2 2 3 3 3 8 4 5 3 2 2 2 2 3 5 7 6 11 6 4 4 6 8 12 26 36 42 70 89 95 92 97 97 63 41 38 18
7 8 7 6 4 4 3 3 3 3 6 20 22 14 21 20 19 13 2 2 3 3 4 4 6 5 29 48 39 14 6 6 13 19 12 33 46 58 78 76 89 90 91 67 55 47 22
16 12 9 6 5 4 5 6 5 9 28 98 100 63 58 74 60 20 2 8 14 13 15 15 12 7 14 86 100 84 54 24 23 12 15 23 50 42 62 81 98 100 98 84 69 48 34
17 11 7 6 7 8 7 6 12 39 99 100 100 86 85 100 58 25 23 36 42 42 41 34 26 25 10 63 100 96 87 78 46 20 17 53 27 52 56 82 96 97 93 81 73 61 29
10 8 8 8 6 5 5 15 51 100 100 100 100 98 75 72 67 51 49 44 39 37 42 41 39 41 31 13 43 80 91 87 100 64 50 75 45 18 16 70 99 97 92 88 83 73 49
9 7 8 13 22 22 26 40 100 100 100 100 99 81 63 48 50 55 52 36 30 22 20 31 26 36 41 33 19 9 51 82 100 97 100 100 59 42 43 67 100 99 97 98 91 83 74
20 33 50 74 88 97 100 100 100 100 100 100 96 72 58 57 48 57 52 31 32 34 27 23 24 35 38 25 38 37 17 12 44 100 100 100 87 79 38 74 86 98 90 96 90 87 86
100 100 100 100 100 100 100 100 100 100 100 100 96 80 71 60 55 47 24 31 38 45 42 40 30 27 40 39 41 36 49 50 22 23 90 100 96 88 40 69 100 99 52 91 86 94 97
100 100 100 100 100 100 100 100 100 100 100 100 99 85 86 58 52 21 45 52 52 59 50 58 46 40 63 62 54 47 38 31 31 26 15 53 100 100 62 91 100 24 67 84 92 86 93
100 100 100 100 100 100 100 100 100 100 100 100 100 100 87 69 50 60 48 50 70 64 57 58 61 62 64 76 55 49 36 36 32 26 33 49 98 100 100 100 85 55 57 71 97 85 94
96 96 98 98 96 92 97 100 100 100 100 100 100 100 100 96 61 61 71 73 68 64 67 42 70 74 52 48 65 46 32 22 29 37 21 36 99 100 100 100 97 52 77 94 100 84 98
98 100 100 93 95 81 75 74 69 82 97 100 100 100 100 100 74 64 57 64 86 82 74 73 69 69 72 44 47 41 29 29 25 28 34 32 30 89 99 100 89 82 84 95 98 59 100
100 100 100 100 100 97 79 62 54 56 58 78 86 99 100 100 94 86 71 64 71 72 65 62 80 57 76 58 47 43 39 26 24 33 34 55 24 46 83 100 99 93 95 96 98 100 98
64 60 58 52 46 40 41 48 58 69 67 68 61 61 82 100 100 99 94 86 74 61 52 62 68 77 79 79 93 76 59 39 33 42 39 44 50 65 63 96 95 100 100 87 83 89 88

GFSGBSN_500_rhum_063.txt.gz
RH
51 56 61 67 65 64 64 62 65 70 75 76 77 75 91 92 89 63 63 57 65 70 77 57 55 56 53 46 72 49 43 44 40 42 47 65 82 79 68 57 52 41 18 12 11 8 11
55 59 66 69 70 75 76 77 74 71 73 79 86 84 86 95 96 95 84 73 75 82 87 67 58 59 54 48 65 58 65 64 54 54 56 63 85 60 72 61 50 49 22 12 10 7 12
58 66 67 70 77 80 82 82 88 86 85 91 100 95 95 96 97 93 94 95 98 90 83 67 65 55 54 65 65 60 69 73 68 62 62 71 78 67 75 65 60 53 23 14 11 7 20
60 65 65 73 79 82 85 87 90 88 93 90 93 99 97 98 97 97 94 94 98 88 82 62 56 55 49 60 57 58 61 60 46 56 64 68 70 66 82 72 70 59 30 16 18 17 37
69 64 59 68 75 75 74 71 80 92 96 90 89 98 92 96 95 96 90 84 89 66 93 76 52 52 45 57 67 53 53 70 57 51 62 54 60 66 78 81 75 62 39 22 26 32 32
28 23 26 26 26 33 45 52 69 76 94 90 93 98 98 95 96 97 91 85 79 66 85 82 68 64 61 52 62 66 52 60 69 54 47 44 50 49 75 81 80 66 55 40 21 44 50
33 18 10 10 11 9 11 17 49 67 30 88 88 93 96 98 97 91 100 92 78 72 65 88 77 80 79 52 51 64 58 53 62 55 38 58 52 38 98 85 90 60 61 44 23 15 18
9 10 10 9 7 7 6 6 16 63 52 43 65 54 59 70 69 87 70 83 86 74 67 82 83 89 98 71 45 57 58 56 55 57 62 53 44 57 98 78 71 71 66 48 22 19 12
15 12 11 11 10 9 8 7 6 6 27 61 33 61 12 11 29 50 84 65 71 80 68 92 91 89 98 76 60 60 58 61 57 56 57 51 66 62 93 79 63 73 70 54 24 20 10
16 17 15 14 13 12 11 9 8 7 6 5 18 28 60 67 8 6 45 61 48 46 63 63 89 83 96 72 57 70 57 64 61 57 65 51 81 60 77 66 62 74 74 59 30 15 11
21 19 18 15 14 13 12 11 10 8 7 6 5 4 3 9 31 10 4 40 72 39 33 36 63 64 60 78 76 81 64 55 54 67 65 53 74 70 74 82 82 84 89 70 44 25 14
11 11 10 10 9 9 8 8 8 8 8 7 6 5 4 3 3 5 4 3 6 35 50 25 23 23 29 42 44 48 85 62 47 58 59 62 87 87 91 94 78 95 88 79 57 37 20
6 6 5 6 6 6 6 6 5 5 6 6 6 5 4 4 3 3 3 3 3 11 14 11 12 16 11 15 16 16 22 46 52 51 51 60 70 71 80 78 84 68 75 74 63 48 32
3 3 3 3 3 2 3 3 4 4 5 5 5 5 4 4 4 3 2 2 3 4 3 3 5 6 7 8 10 10 11 13 16 33 50 58 66 81 79 76 79 78 83 82 72 60 33
3 3 3 3 3 3 3 3 2 2 3 4 4 4 4 3 3 2 2 3 3 3 2 3 3 3 4 4 5 7 9 9 11 26 37 52 54 68 84 98 97 87 80 90 85 71 53
3 3 4 4 5 5 5 4 3 3 3 3 3 3 3 3 2 2 2 3 3 2 2 3 4 5 3 3 3 4 5 6 7 8 16 29 35 63 96 92 90 88 100 98 84 81 58
5 4 6 10 11 8 7 6 5 5 4 4 3 3 3 5 3 2 2 2 2 2 3 5 7 5 4 8 6 4 4 5 6 8 10 11 19 41 81 85 93 85 84 90 89 85 65
13 15 18 19 15 13 11 10 9 6 5 5 5 4 3 8 6 2 2 2 3 3 4 5 11 7 8 8 5 10 11 9 9 8 13 10 9 11 32 68 97 100 96 100 100 92 83
13 15 20 22 21 20 20 15 10 7 6 8 8 5 9 34 6 3 3 4 6 6 8 10 11 12 8 11 19 21 37 42 28 30 16 14 8 8 14 51 68 59 83 94 88 85 70
9 10 16 21 20 20 17 12 8 8 10 7 16 26 41 35 14 30 27 20 13 24 28 26 27 43 19 10 27 76 100 100 76 73 55 34 29 25 11 27 60 60 75 90 95 77 76
12 10 10 10 13 14 11 9 10 10 6 27 53 62 63 40 47 61 56 49 46 53 58 74 65 54 48 27 16 23 87 100 100 100 64 66 38 36 23 26 52 68 77 100 94 76 79
6 10 12 13 12 11 11 11 7 5 14 96 98 78 75 66 52 85 82 72 84 86 62 74 51 81 82 43 35 25 16 46 99 92 94 100 59 82 44 57 48 64 67 40 64 86 69
34 18 14 11 9 12 14 16 15 16 61 100 100 98 96 82 75 62 60 78 81 82 69 68 72 69 66 54 52 48 37 19 17 69 99 49 99 100 68 84 96 56 38 93 85 95 88
100 100 100 97 84 76 75 54 47 40 61 100 100 98 94 63 54 46 60 72 73 75 80 80 86 81 98 58 41 36 29 31 32 25 24 56 81 99 97 100 100 65 58 70 86 88 98
94 97 100 100 100 100 100 100 100 99 98 100 99 96 87 66 67 68 62 66 75 79 64 77 79 87 98 69 44 33 31 22 24 29 27 28 15 19 75 99 83 85 84 90 100 75 94
99 96 94 93 95 100 100 100 100 100 100 100 97 96 92 92 65 70 68 64 60 74 96 78 100 98 70 68 56 37 35 42 33 29 27 27 27 29 24 39 78 67 100 100 100 35 87
90 97 98 99 100 100 100 100 100 100 100 100 95 100 100 88 80 74 57 52 63 74 88 100 100 93 78 63 66 57 44 43 36 25 20 25 26 25 36 29 52 80 100 100 98 50 89
96 97 99 99 98 99 95 99 100 100 100 100 98 97 95 78 77 66 61 55 60 74 88 98 100 92 80 61 50 46 42 39 31 26 22 23 32 25 27 33 37 41 97 100 94 77 99
44 58 94 100 100 100 100 100 100 100 100 100 98 100 100 98 80 90 81 66 66 84 100 99 100 100 100 86 66 62 55 48 42 36 32 27 28 40 34 28 33 22 88 100 100 90 80